Flag for U.S.A. Weather past 2 weeks in Petersburg, Indiana, U.S.A.

Now
82 °F

Partly sunny.


Feels Like: 82 °F
Forecast: 61 / 83 °F
Wind: 9 mph from West

Location: Huntingburg Airport

Current Time: May 5, 2015 at 2:31:27 PM

Latest Report: May 5, 2015 at 1:55 PM


Visibility: 10 mi

Pressure: 30.24 "Hg

Humidity: 40%

Dew point: 55 °F

Location of PetersburgLocation

Historic Weather in Petersburg — Graph

°F

Petersburg temperature yesterday

Maximum temperature yesterday: 82 °F (at 2:55 PM)
Minimum temperature yesterday: 59 °F (at 5:15 AM)
Average temperature yesterday: 70 °F

Past Weeks' High & Low Weather Summary

 TemperatureHumidityPressure
High82 °F (May 4, 2:55 PM)94% (Apr 25, 11:55 AM)30.27 "Hg (Apr 25, 11:55 AM)
Low34 °F (Apr 24, 5:35 AM)23% (Apr 23, 6:15 PM)29.51 "Hg (Apr 25, 6:15 PM)
Average56 °F58%29.97 "Hg
* Reported Apr 20 1:15 PM — May 5 1:35 PM, Petersburg, Weather by CustomWeather, © 2015

Note: Actual official high and low records may vary slightly from our data, if they occured in-between our weather recording intervals... More about our weather records

Advertising

Petersburg weather history for previous 24 hours

 ConditionsComfort  
Time TempWeatherWind HumidityBarometerVisibility
1:35 PM
Tue, May 5
81 °FPartly sunny.12 mph42%30.24 "Hg10 mi
1:15 PM81 °FPassing clouds.15 mph42%30.24 "Hg10 mi
12:55 PM81 °FPassing clouds.10 mph42%30.25 "Hg10 mi
12:35 PM81 °FSunny.12 mph45%30.26 "Hg10 mi
12:15 PM81 °FSunny.14 mph42%30.26 "Hg10 mi
11:55 AM79 °FSunny.12 mph48%30.27 "Hg10 mi
11:35 AM79 °FSunny.13 mph48%30.27 "Hg10 mi
11:15 AM77 °FSunny.13 mph51%30.27 "Hg10 mi
10:55 AM75 °FSunny.13 mph54%30.26 "Hg10 mi
10:35 AM75 °FSunny.12 mph54%30.26 "Hg10 mi
10:15 AM73 °FSunny.12 mph53%30.26 "Hg10 mi
9:55 AM72 °FSunny.10 mph57%30.26 "Hg10 mi
9:35 AM70 °FSunny.12 mph60%30.26 "Hg10 mi
9:15 AM68 °FSunny.9 mph64%30.26 "Hg10 mi
8:55 AM66 °FSunny.7 mph68%30.26 "Hg10 mi
8:35 AM64 °FSunny.7 mph68%30.26 "Hg10 mi
8:15 AM63 °FSunny.5 mph73%30.26 "Hg10 mi
7:55 AM63 °FSunny.3 mph73%30.25 "Hg10 mi
7:35 AM61 °FClear.5 mph72%30.25 "Hg10 mi
7:15 AM59 °FClear.3 mph77%30.24 "Hg10 mi
6:55 AM59 °FClear.3 mph77%30.23 "Hg10 mi
6:35 AM59 °FClear.No wind77%30.22 "Hg10 mi
6:15 AM61 °FClear.3 mph72%30.22 "Hg10 mi
5:55 AM61 °FClear.No wind72%30.22 "Hg10 mi
5:35 AM63 °FClear.No wind68%30.22 "Hg10 mi
5:15 AM63 °FClear.No wind68%30.22 "Hg10 mi
4:55 AM63 °FClear.5 mph68%30.22 "Hg10 mi
4:35 AM63 °FClear.6 mph68%30.21 "Hg10 mi
4:15 AM63 °FClear.3 mph73%30.20 "Hg10 mi
3:55 AM64 °FClear.6 mph68%30.20 "Hg10 mi
3:35 AM63 °FClear.6 mph73%30.20 "Hg10 mi
3:15 AM64 °FClear.6 mph68%30.20 "Hg10 mi
2:55 AM64 °FClear.5 mph68%30.20 "Hg10 mi
2:35 AM64 °FClear.5 mph68%30.20 "Hg10 mi
2:15 AM64 °FClear.6 mph68%30.20 "Hg10 mi
1:55 AM66 °FClear.6 mph64%30.20 "Hg10 mi
1:35 AM66 °FClear.6 mph64%30.20 "Hg10 mi
1:15 AM66 °FClear.6 mph64%30.20 "Hg10 mi
12:55 AM66 °FClear.5 mph64%30.20 "Hg10 mi
12:35 AM66 °FClear.7 mph64%30.20 "Hg10 mi
12:15 AM68 °FClear.5 mph60%30.19 "Hg10 mi
11:15 PM
Mon, May 4
70 °FClear.3 mph57%30.19 "Hg7 mi
10:55 PM70 °FClear.3 mph57%30.18 "Hg10 mi
10:35 PM72 °FClear.6 mph53%30.18 "Hg10 mi
10:15 PM72 °FClear.6 mph53%30.17 "Hg9 mi
9:55 PM72 °FClear.5 mph53%30.17 "Hg10 mi
9:35 PM73 °FSunny.5 mph50%30.16 "Hg10 mi
9:15 PM73 °FSunny.5 mph50%30.15 "Hg10 mi
8:55 PM73 °FSunny.6 mph50%30.15 "Hg10 mi
8:35 PM75 °FSunny.6 mph50%30.15 "Hg10 mi
8:15 PM75 °FSunny.6 mph50%30.15 "Hg10 mi
7:55 PM77 °FSunny.8 mph47%30.15 "Hg10 mi
7:35 PM79 °FSunny.8 mph45%30.15 "Hg10 mi
7:15 PM79 °FSunny.9 mph45%30.15 "Hg10 mi
6:55 PM81 °FSunny.14 mph42%30.14 "Hg10 mi
6:35 PM81 °FScattered clouds.15 mph42%30.15 "Hg10 mi
6:15 PM81 °FScattered clouds.15 mph45%30.14 "Hg10 mi
5:55 PM81 °FBroken clouds.16 mph45%30.14 "Hg10 mi
4:55 PM81 °FPassing clouds.15 mph45%30.15 "Hg10 mi
4:35 PM81 °FBroken clouds.15 mph45%30.15 "Hg10 mi
4:15 PM82 °FPartly sunny.15 mph45%30.15 "Hg10 mi
3:55 PM81 °FScattered clouds.10 mph45%30.16 "Hg10 mi
3:35 PM81 °FScattered clouds.13 mph45%30.16 "Hg10 mi
3:15 PM82 °FPassing clouds.18 mph45%30.16 "Hg10 mi
2:55 PM82 °FSunny.12 mph45%30.16 "Hg10 mi
2:35 PM81 °FSunny.13 mph48%30.16 "Hg10 mi
2:15 PM81 °FSunny.13 mph48%30.16 "Hg10 mi
Weather by CustomWeather, © 2015

See weather overviewHow to use our weather pages